This demonstration page uses our WeatherBlox Daily Observations layout. Learn more.

Left ArrowRight Arrow

Hourly Observations for May 7, 2020

Temp ( °F °C ) Dew Point ( °F °C ) Humidity (%) Winds ( mph kmh ) Pressure ( in mb ) Visibility ( mi km ) Precip ( " mm )
12:53 am 00:53 Partly Cloudy 55 12.8 40 4.4 57 57 ESE 5 7 30.18 1022 10 16 0.00 0.00
1:53 am 01:53 Mostly Cloudy 51 10.6 40 4.4 66 66 SE 5 7 30.16 1022 10 16 0.00 0.00
2:53 am 02:53 Mostly Cloudy 50 10 40 4.4 68 68 SSE 5 7 30.16 1021 10 16 0.00 0.00
3:53 am 03:53 Partly Cloudy 52 11.1 41 5 66 66 E 7 11 30.14 1021 10 16 0.00 0.00
4:53 am 04:53 Partly Cloudy 52 11.1 41 5 66 66 ESE 7 11 30.14 1021 10 16 0.00 0.00
5:53 am 05:53 Partly Cloudy 52 11.1 41 5 66 66 ESE 9 15 30.12 1020 10 16 0.00 0.00
6:53 am 06:53 Mostly Cloudy 53 11.7 42 5.6 66 66 E 10 17 30.11 1020 10 16 0.00 0.00
7:53 am 07:53 Cloudy with Light Rain 53 11.7 44 6.7 72 72 SSE 8 13 30.13 1020 10 16 0.00 0.00
8:53 am 08:53 Cloudy with Light Rain 54 12.2 44 6.7 69 69 SSE 10 17 30.11 1020 10 16 0.00 0.00
9:53 am 09:53 Cloudy with Light Rain 55 12.8 47 8.3 74 74 SE 9 15 30.10 1019 10 16 0.00 0.00
10:53 am 10:53 Cloudy 57 13.9 48 8.9 72 72 SSE 14 22 30.06 1018 10 16 0.02 0.51
11:53 am 11:53 Cloudy 59 15 46 7.8 62 62 SE 16 26 30.00 1016 10 16 0.00 0.00
12:53 pm 12:53 Cloudy with Thunderstorms 58 14.4 47 8.3 67 67 SE 17 28 29.95 1014 10 16 0.00 0.00
1:33 pm 13:33 Windy with Storms Likely 57 13.9 49 9.4 74 74 SSE 25 41 29.90 1013 6 10 0.02 0.51
1:49 pm 13:49 Cloudy with Light Rain 61 16 52 11 72 72 SSE 30 48 29.86 1011 10 16 0.03 0.76
1:53 pm 13:53 Mostly Cloudy with Light Rain 60 15.6 51 10.6 72 72 SSE 28 44 29.87 1011 10 16 0.03 0.76
2:10 pm 14:10 Windy with Storms Likely 58 14.4 49 9.4 72 72 SE 22 35 29.86 1011 10 16 0.00 0.00
2:53 pm 14:53 Windy with Storms Likely 59 15 50 10 72 72 SSE 24 39 29.82 1010 10 16 0.01 0.25
3:17 pm 15:17 Very Windy with Storms Likely 59 15 49 9.4 69 69 N 39 63 29.92 1013 10 16 0.00 0.00
3:34 pm 15:34 Windy with Storms Likely 59 15 48 8.9 67 67 NE 24 39 29.90 1012 10 16 0.00 0.00
3:53 pm 15:53 Cloudy with Thunderstorms 56 13.3 49 9.4 77 77 E 16 26 29.89 1012 10 16 0.02 0.51
4:28 pm 16:28 Cloudy with Light Rain 56 13.3 51 10.6 84 84 E 10 17 29.91 1013 6 10 0.07 1.78
4:53 pm 16:53 Cloudy 57 13.9 51 10.6 81 81 ESE 17 28 29.88 1012 10 16 0.07 1.78
5:53 pm 17:53 Cloudy 58 14.4 51 10.6 78 78 E 14 22 29.86 1011 10 16 0.00 0.00
6:53 pm 18:53 Mostly Cloudy 59 15 52 11.1 78 78 ESE 14 22 29.83 1010 10 16 0.00 0.00
7:53 pm 19:53 Mostly Cloudy 58 14.4 51 10.6 78 78 E 12 19 29.83 1010 10 16 0.00 0.00
8:53 pm 20:53 Mostly Cloudy 57 13.9 51 10.6 81 81 E 9 15 29.85 1011 10 16 0.00 0.00
9:53 pm 21:53 Cloudy 57 13.9 51 10.6 81 81 E 14 22 29.83 1010 10 16 0.00 0.00
10:53 pm 22:53 Cloudy with Light Rain 57 13.9 51 10.6 81 81 NE 16 26 29.89 1012 10 16 0.00 0.00
10:57 pm 22:57 Cloudy with Thunderstorms 57 13.9 51 10.6 81 81 NNE 16 26 29.90 1013 10 16 0.00 0.00
11:30 pm 23:30 Cloudy with Thunderstorms 56 13.3 52 11.1 87 87 N 15 24 29.95 1014 3 5 0.09 2.29
11:53 pm 23:53 Cloudy with Light Rain 56 13.3 52 11.1 87 87 SE 8 13 29.91 1013 10 16 0.11 2.79

Powered by AerisWeather